Location: Hradec Kralove
(50.2170°N, 15.8330°E)
Time: 16:40:30
(UTC+02:00)

ISS - Visible Passes

Search period start: 26 June 2022 00:00
Search period end: 06 July 2022 00:00
Orbit: 415 x 420 km, 51.6° (Epoch: 26 June)

Date Brightness Start Highest point End Pass type
(mag) Time Alt. Az. Time Alt. Az. Time Alt. Az.
29 Jun -1.5 03:23:10 10° S 03:25:08 15° SE 03:27:07 10° ESE visible
01 Jul -2.6 03:24:41 15° SSW 03:26:57 31° SSE 03:30:00 10° E visible
02 Jul -2.2 02:39:13 20° SSE 02:40:03 22° SE 02:42:45 10° E visible
03 Jul -1.6 01:53:54 15° SE 01:53:54 15° SE 01:55:27 10° E visible
03 Jul -3.6 03:26:53 13° SW 03:29:45 61° SSE 03:33:08 10° ENE visible
04 Jul -3.3 02:41:42 27° SSW 02:43:10 45° SSE 02:46:26 10° E visible
05 Jul -2.9 01:56:40 32° SSE 01:56:48 32° SSE 01:59:53 10° E visible
05 Jul -3.7 03:30:06 10° WSW 03:33:30 82° N 03:36:56 10° ENE visible
